EW1714 Weather Reports


Display with metric or nautical units.
time (UTC)temp
F
wind
direction
speed
MPH
gust
MPH
rain 1hr
in
rain 24hr
in
rain mn
in
humidity
%
barometer
mb
20210624063142 52 315 0.0 0.0 0.00 0.00 0.00 92 1026.8
20210624061602 52 315 0.0 0.0 0.00 0.00 0.00 92 1026.7
20210624060021 52 315 0.0 0.0 0.00 0.00 0.00 91 1026.6
20210624054513 53 315 0.0 0.0 0.00 0.00 0.00 91 1026.4
20210624053407 53 315 0.0 0.0 0.00 0.00 0.00 91 1026.3
20210624051630 54 315 0.0 0.0 0.00 0.00 0.00 91 1026.1
20210624050046 54 315 0.0 0.0 0.00 0.00 0.00 90 1026.1
20210624044710 54 315 0.0 0.0 0.00 0.00 0.00 90 1026.1
20210624043010 55 315 0.0 0.0 0.00 0.00 0.00 90 1025.9
20210624041526 55 315 0.0 0.0 0.00 0.00 0.00 89 1026.0
20210624040108 55 315 0.0 0.0 0.00 0.00 0.00 88 1025.9
20210624034618 56 315 0.0 0.0 0.00 0.00 0.00 88 1025.8
20210624033045 56 315 0.0 0.0 0.00 0.00 0.00 87 1025.6
20210624031602 56 315 0.0 0.0 0.00 0.00 0.00 86 1025.3
20210624030051 57 315 0.0 0.0 0.00 0.00 0.00 85 1025.1
20210624024606 57 315 0.0 0.0 0.00 0.00 0.00 83 1024.9
20210624023113 58 315 0.0 0.0 0.00 0.00 0.00 81 1024.9
20210624021524 59 315 0.0 0.0 0.00 0.00 0.00 80 1024.8
20210624020100 59 315 0.0 0.0 0.00 0.00 0.00 78 1024.6
20210624014523 60 315 0.0 0.0 0.00 0.00 0.00 74 1024.5
20210624013020 61 315 0.0 0.0 0.00 0.01 0.00 70 1024.2
20210624011620 62 315 0.0 0.0 0.00 0.01 0.00 71 1023.9
20210624010137 63 315 0.0 0.0 0.00 0.01 0.00 68 1023.8
20210624004645 64 315 0.0 0.0 0.00 0.01 0.00 68 1023.5
20210624003048 65 315 0.0 0.0 0.00 0.03 0.00 63 1023.3
20210624001622 67 315 0.0 0.0 0.00 0.03 0.00 60 1023.0
20210624000108 68 315 0.0 0.0 0.00 0.03 0.00 58 1022.8
20210623234546 69 315 0.0 0.0 0.00 0.03 0.00 51 1022.8
20210623231533 70 360 0.0 2.0 0.00 0.06 0.00 45 1022.6
20210623230027 70 263 0.0 2.0 0.00 0.06 0.00 45 1022.4
20210623224559 71 22 0.0 3.0 0.00 0.06 0.00 43 1022.2
20210623221509 71 18 0.0 0.0 0.00 0.06 0.00 41 1021.7
20210623220012 71 355 0.0 1.0 0.00 0.06 0.00 42 1021.6
20210623214502 72 81 0.0 2.0 0.00 0.06 0.00 41 1021.5
20210623211622 73 306 0.0 4.0 0.00 0.15 0.00 39 1021.2
20210623210134 73 130 0.0 5.0 0.00 0.15 0.00 39 1021.1
20210623204628 73 355 0.0 4.0 0.00 0.15 0.00 43 1021.0
20210623203106 74 343 0.0 4.0 0.00 0.15 0.00 38 1021.0
20210623201542 76 5 0.0 4.0 0.00 0.15 0.00 39 1021.1
20210623200046 76 347 0.0 9.0 0.00 0.15 0.00 39 1020.9
20210623194548 76 319 0.0 8.0 0.00 0.15 0.00 39 1020.8
20210623193049 76 342 1.0 5.0 0.00 0.16 0.00 38 1020.6
20210623191533 76 22 0.0 8.0 0.00 0.16 0.00 40 1020.8
20210623190006 75 95 0.0 8.0 0.00 0.16 0.00 44 1020.6
20210623184600 75 28 0.0 8.0 0.00 0.16 0.00 44 1020.6
20210623183213 76 355 0.0 8.0 0.00 0.16 0.00 39 1020.4
20210623181548 76 166 1.0 5.0 0.00 0.16 0.00 42 1020.3
20210623180029 74 360 0.0 6.0 0.00 0.16 0.00 42 1020.2
20210623174506 76 17 0.0 9.0 0.00 0.16 0.00 40 1020.2
20210623173003 76 254 0.0 3.0 0.00 0.16 0.00 39 1020.1
20210623171621 75 154 0.0 6.0 0.00 0.16 0.00 44 1020.2
20210623170236 74 136 0.0 2.0 0.00 0.16 0.00 41 1020.0
20210623164623 73 360 0.0 5.0 0.00 0.16 0.00 47 1019.9
20210623163118 73 23 4.0 11.0 0.00 0.16 0.16 44 1019.9
20210623161700 73 360 1.0 9.0 0.00 0.16 0.16 46 1019.8
20210623160106 72 355 2.0 11.0 0.00 0.16 0.16 46 1019.7
20210623154550 72 314 0.0 11.0 0.00 0.16 0.16 44 1019.7
20210623153100 72 355 2.0 10.0 0.00 0.16 0.16 46 1019.6
20210623151539 72 346 0.0 8.0 0.00 0.16 0.16 49 1019.5
20210623150045 72 22 3.0 10.0 0.00 0.16 0.16 47 1019.5
20210623144609 71 346 1.0 8.0 0.00 0.16 0.16 49 1019.4
20210623143118 70 153 0.0 3.0 0.00 0.16 0.16 53 1019.3
20210623141551 69 355 0.0 7.0 0.00 0.16 0.16 55 1019.2
20210623140043 67 360 1.0 12.0 0.00 0.16 0.16 55 1019.0
20210623134515 65 5 0.0 5.0 0.00 0.16 0.16 60 1018.9
20210623133019 64 54 0.0 7.0 0.00 0.16 0.16 67 1018.8
20210623131810 61 54 0.0 3.0 0.00 0.16 0.16 70 1018.6
20210623130232 59 338 0.0 4.0 0.00 0.16 0.16 78 1018.5
20210623124616 58 19 0.0 9.0 0.00 0.16 0.16 83 1018.3
20210623123117 57 280 1.0 7.0 0.00 0.16 0.16 82 1018.3
20210623121742 57 284 1.0 8.0 0.00 0.16 0.16 85 1018.2
20210623120243 57 82 0.0 3.0 0.00 0.16 0.16 89 1018.0
20210623114636 57 355 0.0 3.0 0.00 0.16 0.16 89 1017.7
20210623113129 57 61 0.0 1.0 0.00 0.16 0.16 84 1017.4
20210623111617 56 271 0.0 0.0 0.00 0.16 0.16 82 1017.2
20210623110109 55 355 0.0 0.0 0.00 0.16 0.16 86 1016.9
20210623104510 54 26 0.0 1.0 0.00 0.16 0.16 89 1016.7
20210623103007 53 96 0.0 0.0 0.00 0.16 0.16 88 1016.5
20210623101646 53 336 0.0 0.0 0.00 0.16 0.16 88 1016.3
20210623100118 53 23 0.0 0.0 0.00 0.16 0.16 89 1016.0
20210623094605 53 23 0.0 0.0 0.00 0.16 0.16 88 1015.9
20210623093050 53 23 0.0 0.0 0.00 0.16 0.16 87 1015.5
20210623091509 53 23 0.0 3.0 0.00 0.16 0.16 87 1015.3
20210623090001 53 355 0.0 3.0 0.00 0.16 0.16 88 1014.8
20210623084635 53 32 0.0 0.0 0.00 0.16 0.16 88 1014.4
20210623083228 53 194 0.0 0.0 0.00 0.16 0.16 89 1014.2
20210623081607 53 19 0.0 0.0 0.00 0.16 0.16 89 1014.0
20210623080205 53 44 0.0 0.0 0.00 0.16 0.16 90 1013.6
20210623074606 54 49 0.0 0.0 0.00 0.16 0.16 91 1013.2
20210623073148 54 49 0.0 0.0 0.00 0.16 0.16 91 1013.0
20210623071535 54 49 0.0 0.0 0.00 0.16 0.16 90 1012.8
20210623070036 55 49 0.0 0.0 0.00 0.16 0.16 90 1012.5
20210623064522 55 49 0.0 0.0 0.00 0.16 0.16 89 1012.3